Cosmos 1346 Rocket - Orbit

View from above orbital plane
View from above orbital plane
View from above satellite
View from above satellite

Ground track
Ground track

The orbit data is extracted from the following two-line orbital elements,

1 13121U 82027B   13143.73075813  .00002458  00000-0  17797-3 0  1224
2 13121 081.1701 020.3845 0029993 025.5114 334.7580 15.03288014693358
Epoch (UTC): 23 May 2013 17:32:17
Eccentricity: 0.0029993
inclination: 81.1701°
perigee height: 536 km
apogee height: 577 km
right ascension of ascending node: 20.3845°
argument of perigee: 25.5114°
revolutions per day: 15.03288014
mean anomaly at epoch: 334.7580°
orbit number at epoch: 69335

The dashed part of the orbit path shows where the satellite is in the earth's shadow,  

Developed and maintained by Chris Peat, Heavens-Above GmbH. Please read the updated FAQ before sending e-mail. Imprint. DLR